Regional Weather Roundup
Issued by NWS Newport/Morehead, NC

Current Version | Previous Version | Graphics & Text | Print | Product List | Glossary Off
Versions: 1 2 3 4 5 6 7 8 9 10 11 12 13 14 15 16 17 18 19 20 21 22 23 24 25 26 27 28 29 30 31 32 33 34 35 36 37 38 39 40 41 42 43 44 45 46 47 48 49 50

000
ASUS42 KMHX 240422
RWRMHX
WEATHER ROUNDUP FOR EASTERN NORTH CAROLINA
NATIONAL WEATHER SERVICE NEWPORT/MOREHEAD CITY NC
1200 AM EDT WED SEP 24 2014

NOTE: "FAIR" INDICATES FEW OR NO CLOUDS BELOW 12,000 FEET
WITH NO SIGNIFICANT WEATHER AND/OR OBSTRUCTIONS TO VISIBILITY

NCZ015>017-031-032-045>047-102-103-240500-
NORTH COAST

CITY           SKY/WX    TMP DP  RH WIND       PRES   REMARKS
EDENTON        CLOUDY    60  56  84 N8        30.27F
ELIZABETH CITY CLOUDY    64  58  80 N10       30.28S
KITTY HAWK     CLOUDY    69  60  74 NE13G22   30.24S
MANTEO         CLOUDY    68  61  77 NE17G28   30.24S

$$

NCZ045>047-081-094-103-104-240500-
CENTRAL COAST

CITY           SKY/WX    TMP DP  RH WIND       PRES   REMARKS
FRISCO         LGT RAIN  68  66  93 NE12G24   30.19R FOG
SWANQUARTER      N/A     64 N/A N/A NE9       30.18S

$$

NCZ095-097-098-100-101-240500-
SOUTHERN COAST

CITY           SKY/WX    TMP DP  RH WIND       PRES   REMARKS
BEAUFORT       LGT RAIN  65  62  90 N17       30.18F
CEDAR ISLAND     N/A     68 N/A N/A N23G33    30.24S
JACKSONVILLE   CLOUDY    60  56  86 N15       30.21F
NEWPORT        NOT AVBL
PINEY ISLAND   LGT RAIN  68  64  87 N18G29    30.19F FOG
WILMINGTON     CLOUDY    59  56  89 N16G23    30.19F


$$

NCZ011>013-027>030-043-044-078>080-089-090>093-098-240500-
COASTAL PLAIN

CITY           SKY/WX    TMP DP  RH WIND       PRES   REMARKS
AHOSKIE        CLOUDY    57  51  82 N6        30.30F
CLINTON        CLOUDY    59  56  89 NE8G16    30.25F
ELIZABETHTOWN  CLOUDY    58  56  96 CALM      30.23F
GOLDSBORO      CLOUDY    59  57  93 CALM      30.26S
GREENVILLE     CLOUDY    59  54  82 N9        30.28F
HAVELOCK       CLOUDY    63  57  81 N17       30.22F
KENANSVILLE    CLOUDY    59  54  82 N10G17    30.25F
KINSTON        CLOUDY    60  54  82 N12       30.26F
NEW BERN       CLOUDY    62  56  80 N9        30.24F
RICHLANDS      CLOUDY    59  52  77 N14G21    30.22F
ROANOKE RAPIDS NOT AVBL
ROCKY MOUNT    CLOUDY    57  54  89 N9        30.30S
WASHINGTON     CLOUDY    57  55  90 N12       30.25F
WHITEVILLE     LGT RAIN  58  56  93 N6        30.21S

$$

AMZ130-135-150-152-154-156-158-170-250-252-270-ANZ085-086-088-633-658-670-240500-
MARINE OBSERVATIONS

STATION/POSITION TIME  TEMP    WIND        PRES    WAVE   SWELL
                       AIR SEA DIR/SP/G            HT/PER HT/PER
                 (UTC) (F)     (DEG/KT/KT) (MB)    (FT/S) (FT/S)
CHESAPEAKE LIGHT 0400   67      50/ 23/ 25 1026.5
BUOY 44014       0400   70 75   50/ 21/ 25 1024.5    5/ 6   2/ 9
DUCK             0400   69 73   30/ 27/ 29 1023.5
2E DUCK          0400                        N/A     5/ 6
OREGON INLET     0400   70 72   30/ 21/ 28 1023.1
BUOY 44095       0400      74                N/A     8/ 7
20E OREGON INLET NOT AVBL
HATTERAS CG      NOT AVBL
DIAMOND BUOY     0400   72      30/ 21/ 25 1020.8    9/ 8
CAPE LOOKOUT     0400   66      10/ 22/ 27 1021.4
BEAUFORT LAB     0400   64 74   10/ 16/ 22 1021.4
30 SE NEW RIVER  0400   70 81   20/ 29/ 37 1019.3    9/ 7
5 SE WRIGHTSVILL 0400   60 78   20/ 25/ 29   N/A
BUOY 41002       0338   80 81  140/ 12/ 14 1019.3    4/ 7   3/ 7
BUOY 41004       0400   72 81   30/ 29/ 33 1017.9   10/ 8   5/14

$$



USA.gov is the U.S. government's official web portal to all federal, state and local government web resources and services.